Location: Madingley
(52.2167°N, 0.0500°E)
Time: 07:21:10
(UTC+00:00)

Cosmos 1805 - Pass Details

Date: 15 May 2026
Orbit: 411 x 414 km, 82.5° (Epoch: 5 June)

Event Time Altitude Azimuth Distance (km) Brightness Sun altitude
Rises 20:29:46 0° 359° (N) 2,379 7.3 -5.9°
Reaches altitude 10° 20:32:08 10° 16° (NNE) 1,508 5.9 -6.1°
Maximum altitude 20:34:46 22° 69° (ENE) 974 4.4 -6.4°
Drops below altitude 10° 20:37:22 10° 123° (ESE) 1,494 4.9 -6.7°
Enters shadow 20:37:38 - 125° (SE) 1,581 5.0 -6.7°
